Location: Hackberry
(29.5783°N, 96.8797°W)
Time: 13:33:13
(UTC+00:00)

ACS3 Solar Sail - Visible Passes

Search period start: 07 October 2024 00:00
Search period end: 17 October 2024 00:00
Orbit: 962 x 1035 km, 97.4° (Epoch: 07 October)

Date Brightness Start Highest point End Pass type
(mag) Time Alt. Az. Time Alt. Az. Time Alt. Az.
07 Oct 2.8 01:49:54 30° NE 01:49:54 30° NE 01:54:00 10° N visible
07 Oct 3.9 03:35:04 22° NW 03:35:04 22° NW 03:37:45 10° NW visible
08 Oct 2.6 02:22:06 41° NNE 02:22:06 41° NNE 02:26:13 10° N visible
08 Oct 4.6 04:07:15 11° WNW 04:07:15 11° WNW 04:07:39 10° WNW visible
09 Oct 3.4 01:09:07 15° ENE 01:09:07 15° ENE 01:11:42 10° NE visible
09 Oct 3.0 02:54:17 36° NNW 02:54:17 36° NNW 02:57:55 10° NNW visible
10 Oct 3.0 01:41:17 26° NE 01:41:17 26° NE 01:44:58 10° NNE visible
10 Oct 3.8 03:26:26 23° NW 03:26:26 23° NW 03:29:04 10° NNW visible
11 Oct 2.7 02:13:26 36° NNE 02:13:26 36° NNE 02:17:15 10° N visible
11 Oct 4.5 03:58:35 12° WNW 03:58:35 12° WNW 03:59:15 10° NW visible
12 Oct 3.6 01:00:25 12° NE 01:00:25 12° NE 01:02:07 10° NE visible
12 Oct 3.0 02:45:34 35° NNW 02:45:34 35° NNW 02:48:59 10° NNW visible
13 Oct 3.1 01:32:33 22° NE 01:32:33 22° NE 01:35:45 10° NNE visible
13 Oct 3.8 03:17:42 23° NW 03:17:42 23° NW 03:20:12 10° NNW visible
14 Oct 2.9 02:04:39 32° NNE 02:04:39 32° NNE 02:08:07 10° N visible
14 Oct 4.5 03:49:48 13° NW 03:49:48 13° NW 03:50:37 10° NW visible
15 Oct 3.7 00:51:36 10° NE 00:51:36 10° NE 00:51:59 10° NE visible
15 Oct 3.1 02:36:45 32° NNW 02:36:45 32° NNW 02:39:55 10° NNW visible
16 Oct 3.3 01:23:40 19° NE 01:23:40 19° NE 01:26:21 10° NNE visible
16 Oct 3.7 03:08:49 23° NW 03:08:49 23° NW 03:11:12 10° NNW visible
